GW2260 Weather Reports


Display with metric or nautical units.
time (UTC)temp
F
wind
direction
speed
MPH
gust
MPH
rain 1hr
in
rain 24hr
in
rain mn
in
humidity
%
barometer
mb
20260906230918 70 188 1.0 3.0 0.03 0.04 0.03 96 1013.3
20260906225917 70 300 0.0 2.0 0.03 0.04 0.03 96 1013.3
20260906224918 70 213 1.0 2.0 0.03 0.04 0.03 96 1013.3
20260906223917 70 246 1.0 1.0 0.02 0.03 0.02 96 1013.6
20260906222917 71 257 1.0 4.0 0.00 0.01 0.00 94 1013.5
20260906221918 72 230 2.0 5.0 0.00 0.01 0.00 93 1013.5
20260906220917 73 344 2.0 3.0 0.00 0.01 0.00 92 1013.7
20260906215917 73 315 0.0 2.0 0.00 0.01 0.00 91 1013.8
20260906214958 73 281 1.0 2.0 0.00 0.01 0.00 91 1013.9
20260906213917 73 228 0.0 2.0 0.00 0.01 0.00 91 1014.0
20260906212918 73 277 1.0 4.0 0.00 0.01 0.00 93 1014.1
20260906211917 72 338 2.0 5.0 0.00 0.01 0.00 89 1014.2
20260906210917 72 342 1.0 3.0 0.00 0.01 0.00 90 1014.3
20260906205938 71 302 1.0 3.0 0.00 0.01 0.00 92 1014.3
20260906204938 71 350 3.0 4.0 0.00 0.01 0.00 93 1014.1
20260906203940 71 12 3.0 6.0 0.00 0.01 0.00 94 1014.2
20260906202917 70 289 2.0 4.0 0.00 0.01 0.00 96 1014.4
20260906201918 70 334 3.0 5.0 0.00 0.01 0.00 96 1014.5
20260906200937 70 5 2.0 3.0 0.00 0.01 0.00 96 1014.4
20260906195918 70 354 1.0 2.0 0.00 0.01 0.00 96 1014.4
20260906194918 69 354 1.0 2.0 0.00 0.01 0.00 95 1014.3
20260906193938 69 346 1.0 4.0 0.00 0.01 0.00 96 1014.2
20260906192917 69 347 1.0 3.0 0.00 0.01 0.00 96 1014.1
20260906191918 69 336 0.0 2.0 0.00 0.01 0.00 96 1014.0
20260906190917 69 313 1.0 3.0 0.00 0.01 0.00 96 1014.0
20260906185938 69 317 1.0 2.0 0.00 0.01 0.00 96 1013.9
20260906184918 69 340 2.0 4.0 0.00 0.01 0.00 97 1013.8
20260906183918 69 341 2.0 4.0 0.00 0.01 0.00 97 1013.7
20260906182938 69 345 3.0 4.0 0.00 0.01 0.00 97 1013.5
20260906181917 69 0.0 0.0 0.00 0.01 0.00 97 1013.4
20260906180919 69 0.0 0.0 0.00 0.01 0.00 97 1013.4
20260906175917 69 0.0 0.0 0.00 0.01 0.00 97 1013.4
20260906174918 68 0.0 0.0 0.00 0.01 0.00 97 1013.3
20260906173917 68 0.0 0.0 0.00 0.01 0.00 97 1013.2
20260906172918 68 0.0 0.0 0.00 0.01 0.00 97 1013.0
20260906171919 67 0.0 0.0 0.00 0.01 0.00 97 1013.0
20260906170917 67 0.0 0.0 0.00 0.01 0.00 97 1013.1
20260906165917 66 0.0 0.0 0.00 0.01 0.00 97 1012.9
20260906164928 66 0.0 0.0 0.00 0.01 0.00 98 1012.9
20260906163917 66 0.0 0.0 0.00 0.01 0.00 97 1012.7
20260906162920 66 0.0 0.0 0.00 0.01 0.00 97 1012.5
20260906161918 66 0.0 0.0 0.00 0.01 0.00 97 1012.6
20260906160918 66 0.0 0.0 0.00 0.01 0.00 97 1012.6
20260906155918 66 0.0 0.0 0.00 0.01 0.00 97 1012.6
20260906154919 66 0.0 0.0 0.00 0.01 0.00 97 1012.5
20260906153918 66 0.0 0.0 0.00 0.01 0.00 97 1012.5
20260906152918 66 0.0 0.0 0.00 0.01 0.00 97 1012.5
20260906151937 66 0.0 0.0 0.00 0.01 0.00 97 1012.3
20260906150920 66 0.0 0.0 0.00 0.01 0.00 96 1012.1
20260906145921 66 0.0 0.0 0.00 0.01 0.00 96 1011.9
20260906144920 66 113 0.0 1.0 0.00 0.01 0.00 96 1012.2
20260906143918 66 0.0 0.0 0.00 0.01 0.00 96 1012.2
20260906142917 66 0.0 0.0 0.00 0.01 0.00 96 1012.2
20260906141918 66 0.0 0.0 0.00 0.01 0.00 96 1012.1
20260906140921 66 0.0 0.0 0.00 0.01 0.00 96 1012.1
20260906135919 66 0.0 0.0 0.00 0.01 0.00 96 1012.2
20260906134918 66 0.0 0.0 0.00 0.01 0.00 96 1012.3
20260906133918 66 0.0 0.0 0.00 0.01 0.00 96 1012.2
20260906132917 66 0.0 0.0 0.00 0.01 0.00 96 1012.3
20260906131918 66 0.0 0.0 0.00 0.01 0.00 96 1012.3
20260906130917 66 0.0 0.0 0.00 0.01 0.00 96 1012.2
20260906125918 66 0.0 0.0 0.00 0.01 0.00 96 1012.3
20260906124917 66 0.0 0.0 0.00 0.01 0.00 96 1012.4
20260906123918 66 126 0.0 1.0 0.00 0.01 0.00 96 1012.4
20260906122917 66 213 0.0 1.0 0.00 0.01 0.00 96 1012.6
20260906121918 66 0.0 0.0 0.00 0.01 0.00 96 1012.8
20260906120937 66 0.0 0.0 0.00 0.01 0.00 95 1013.0
20260906115918 66 0.0 0.0 0.00 0.01 0.00 95 1012.8
20260906114918 66 0.0 0.0 0.00 0.01 0.00 95 1012.9
20260906113939 66 115 0.0 1.0 0.00 0.01 0.00 94 1012.8
20260906112921 66 0.0 0.0 0.00 0.01 0.00 94 1012.9
20260906111917 67 38 1.0 3.0 0.00 0.01 0.00 94 1013.0
20260906110917 67 0.0 0.0 0.00 0.01 0.00 93 1013.1
20260906105918 66 125 1.0 2.0 0.00 0.01 0.00 94 1013.3
20260906104918 66 117 1.0 2.0 0.00 0.01 0.00 94 1013.3
20260906103917 66 119 0.0 1.0 0.00 0.01 0.00 95 1013.4
20260906102938 66 121 1.0 2.0 0.00 0.01 0.00 95 1013.7
20260906101919 65 120 1.0 2.0 0.00 0.01 0.00 95 1013.8
20260906100917 66 137 1.0 2.0 0.00 0.01 0.00 95 1013.8
20260906095917 66 108 1.0 3.0 0.00 0.01 0.01 95 1013.9
20260906094919 66 0.0 1.0 0.00 0.01 0.01 95 1013.9
20260906094019 66 0.0 1.0 0.00 0.01 0.01 95 1014.1
20260906092920 66 36 1.0 2.0 0.00 0.01 0.01 95 1014.1
20260906091938 66 38 1.0 1.0 0.00 0.01 0.01 95 1014.4
20260906090917 66 29 1.0 2.0 0.00 0.01 0.01 95 1014.4
20260906085917 66 294 0.0 1.0 0.00 0.01 0.01 96 1014.6
20260906084917 66 32 2.0 3.0 0.00 0.01 0.01 96 1014.5
20260906083918 66 37 0.0 1.0 0.00 0.01 0.01 96 1014.7
20260906082917 65 81 0.0 1.0 0.00 0.01 0.01 96 1014.8
20260906081917 65 99 1.0 2.0 0.00 0.01 0.01 95 1014.8
20260906080917 65 0.0 0.0 0.00 0.01 0.01 95 1014.7
20260906075917 65 102 1.0 2.0 0.00 0.01 0.01 95 1014.7
20260906074917 66 0.0 0.0 0.00 0.01 0.01 96 1014.6
20260906073917 66 0.0 0.0 0.00 0.01 0.01 95 1014.5
20260906072937 66 109 0.0 1.0 0.00 0.01 0.01 96 1014.6
20260906071917 67 71 1.0 2.0 0.00 0.01 0.01 96 1014.6
20260906070917 67 211 1.0 2.0 0.00 0.01 0.01 96 1014.5
20260906065917 67 0.0 0.0 0.00 0.01 0.01 96 1014.4
20260906064917 68 0.0 0.0 0.00 0.01 0.01 96 1014.3
20260906063916 68 360 0.0 1.0 0.00 0.01 0.01 96 1014.2
20260906062938 67 0.0 0.0 0.00 0.01 0.01 95 1014.0
20260906061917 67 0.0 0.0 0.00 0.01 0.01 94 1013.8
20260906060918 67 0.0 0.0 0.00 0.01 0.01 94 1013.8
20260906055917 67 60 1.0 2.0 0.00 0.01 0.01 95 1013.6
20260906054917 67 0.0 0.0 0.00 0.01 0.01 95 1013.4
20260906053918 68 0.0 0.0 0.00 0.01 0.01 96 1013.4
20260906052917 68 0.0 1.0 0.00 0.01 0.01 95 1013.5
20260906051958 68 0.0 0.0 0.00 0.01 0.01 95 1013.6
20260906050917 69 0.0 0.0 0.00 0.01 0.01 94 1013.5
20260906045917 69 342 0.0 1.0 0.00 0.01 0.01 93 1013.3
20260906044917 70 25 1.0 1.0 0.01 0.01 0.01 93 1013.3
20260906043917 70 0.0 0.0 0.01 0.01 0.01 94 1013.2
20260906042917 70 0.0 0.0 0.01 0.01 0.01 94 1013.2
20260906041917 70 0.0 0.0 0.01 0.01 0.01 94 1013.2
20260906040917 70 205 0.0 1.0 0.01 0.01 0.01 94 1013.0
20260906035936 70 0.0 1.0 0.01 0.01 0.01 93 1013.0
20260906034918 71 214 1.0 3.0 0.00 0.00 0.00 92 1012.9
20260906033918 71 308 0.0 2.0 0.00 0.00 0.00 92 1012.9
20260906032917 71 203 2.0 3.0 0.00 0.00 0.00 92 1012.7
20260906031917 71 261 1.0 2.0 0.00 0.00 0.00 93 1012.8
20260906030918 71 226 1.0 4.0 0.00 0.00 0.00 93 1012.6
20260906025917 71 237 2.0 3.0 0.00 0.00 0.00 93 1012.7
20260906024916 71 235 1.0 3.0 0.00 0.00 0.00 93 1012.8
20260906023917 71 232 2.0 4.0 0.00 0.00 0.00 92 1012.8
20260906022917 71 224 1.0 5.0 0.00 0.00 0.00 91 1012.7
20260906021917 72 216 2.0 4.0 0.00 0.00 0.00 90 1012.8
20260906020917 74 231 1.0 3.0 0.00 0.00 0.00 87 1012.7
20260906015917 74 233 1.0 2.0 0.00 0.00 0.00 87 1012.7
20260906014917 75 212 3.0 5.0 0.00 0.00 0.00 85 1012.6
20260906013917 74 208 2.0 5.0 0.00 0.00 0.00 88 1012.6
20260906012920 73 231 2.0 6.0 0.00 0.00 0.00 87 1012.7
20260906011937 73 190 1.0 3.0 0.00 0.00 0.00 86 1012.7
20260906010917 73 197 2.0 6.0 0.00 0.00 0.00 86 1012.9
20260906005918 73 246 2.0 4.0 0.00 0.00 0.00 87 1012.9
20260906004917 73 208 2.0 4.0 0.00 0.00 0.00 87 1012.9
20260906003919 73 199 3.0 5.0 0.00 0.00 0.00 86 1012.9
20260906002937 74 197 2.0 3.0 0.00 0.00 0.00 83 1013.0
20260906001918 75 212 2.0 4.0 0.00 0.00 0.00 82 1013.1
20260906000917 75 205 2.0 4.0 0.00 0.00 0.00 85 1013.2
20260905235918 73 216 4.0 6.0 0.00 0.00 0.00 86 1013.3
20260905234917 74 219 3.0 6.0 0.00 0.00 0.00 84 1013.3
20260905233917 73 226 3.0 5.0 0.00 0.00 0.00 87 1013.3
20260905232937 73 202 2.0 3.0 0.00 0.00 0.00 84 1013.5
20260905231918 74 257 2.0 5.0 0.00 0.00 0.00 83 1013.7